TimeCST,TemperatureF,Dew PointF,Humidity,Sea Level PressureIn,VisibilityMPH,Wind Direction,Wind SpeedMPH,Gust SpeedMPH,PrecipitationIn,Events,Conditions,WindDirDegrees,DateUTC
12:53 AM,39.9,30.0,68,29.76,10.0,WSW,16.1,28.8,N/A,,Clear,250,2012-12-04 06:53:00
1:53 AM,37.9,27.0,65,29.80,10.0,West,18.4,25.3,N/A,,Clear,270,2012-12-04 07:53:00
2:53 AM,36.0,25.0,64,29.83,10.0,West,16.1,23.0,N/A,,Clear,270,2012-12-04 08:53:00
3:53 AM,34.0,21.0,59,29.86,10.0,West,16.1,27.6,N/A,,Clear,260,2012-12-04 09:53:00
4:53 AM,30.9,19.0,61,29.89,10.0,West,16.1,25.3,N/A,,Clear,260,2012-12-04 10:53:00
5:53 AM,30.0,17.1,59,29.92,10.0,West,15.0,24.2,N/A,,Clear,270,2012-12-04 11:53:00
6:53 AM,27.0,16.0,63,29.96,10.0,West,5.8,-,N/A,,Clear,270,2012-12-04 12:53:00
7:53 AM,25.0,12.0,58,30.01,10.0,West,13.8,24.2,N/A,,Clear,280,2012-12-04 13:53:00
8:53 AM,24.1,12.0,60,30.05,10.0,West,12.7,23.0,N/A,,Clear,280,2012-12-04 14:53:00
9:53 AM,25.0,10.9,55,30.08,10.0,West,15.0,24.2,N/A,,Clear,270,2012-12-04 15:53:00
10:53 AM,25.0,10.0,53,30.10,10.0,West,11.5,24.2,N/A,,Clear,280,2012-12-04 16:53:00
11:53 AM,26.1,10.0,51,30.12,10.0,West,16.1,26.5,N/A,,Clear,280,2012-12-04 17:53:00
12:53 PM,26.1,10.9,53,30.15,10.0,West,12.7,24.2,N/A,,Scattered Clouds,270,2012-12-04 18:53:00
1:53 PM,25.0,10.9,55,30.17,10.0,West,16.1,26.5,N/A,,Scattered Clouds,280,2012-12-04 19:53:00
2:53 PM,26.1,10.0,51,30.20,10.0,WNW,13.8,24.2,N/A,,Partly Cloudy,300,2012-12-04 20:53:00
3:53 PM,24.1,10.0,55,30.25,10.0,WNW,15.0,19.6,N/A,,Clear,290,2012-12-04 21:53:00
4:53 PM,21.9,10.0,60,30.28,10.0,NW,8.1,-,N/A,,Clear,310,2012-12-04 22:53:00
5:53 PM,21.0,10.9,65,30.32,10.0,WNW,8.1,-,N/A,,Partly Cloudy,300,2012-12-04 23:53:00
6:53 PM,21.9,10.9,63,30.35,10.0,NNW,10.4,-,N/A,,Overcast,340,2012-12-05 00:53:00
7:53 PM,19.9,10.9,68,30.37,10.0,NW,5.8,-,N/A,,Mostly Cloudy,310,2012-12-05 01:53:00
8:53 PM,18.0,10.0,71,30.38,10.0,WNW,6.9,-,N/A,,Clear,290,2012-12-05 02:53:00
9:53 PM,17.1,10.0,74,30.38,10.0,WSW,3.5,-,N/A,,Clear,250,2012-12-05 03:53:00
10:53 PM,15.1,9.0,77,30.39,10.0,WSW,6.9,-,N/A,,Clear,250,2012-12-05 04:53:00
11:53 PM,18.0,12.0,78,30.42,10.0,West,4.6,-,N/A,,Overcast,270,2012-12-05 05:53:00